Weather History for Saltillo, Mexico

Change the Weather History Date:

Thursday, December 26, 2013

  Actual Average Record
Temperature  
Mean Temperature 36 °F -  
Max Temperature 39 °F 65 °F 84 °F (1996)
Min Temperature 34 °F 43 °F 23 °F (2012)
Degree Days  
Heating Degree Days 28    
Moisture  
Dew Point 37 °F    
Average Humidity 96    
Maximum Humidity 100    
Minimum Humidity 87    
Precipitation  
Precipitation 0.24 in - - ()
Sea Level Pressure  
Sea Level Pressure 30.33 in    
Wind  
Wind Speed 4 mph ()    
Max Wind Speed 11 mph    
Max Gust Speed -    
Visibility 0.6 miles    
Events Fog , Rain    
Averages and records for this station are not official NWS values.
T = Trace of Precipitation, MM = Missing Value Source: Averaged Metar Reports

Daily Weather History Graph

Daily Weather History Graph

Search for Another Location

Airport:

Trip Planner

Search our weather history database for the weather conditions in past years. The results will help you decide how hot, cold, wet, or windy it might be!

Date:

Astronomy

Dec. 26, 2013 Rise Set
Actual Time 7:27 AM CST 6:01 PM CST
Civil Twilight 7:02 AM CST 6:26 PM CST
Nautical Twilight 6:34 AM CST 6:54 PM CST
Astronomical Twilight 6:05 AM CST 7:23 PM CST
Moon 1:24 AM CST 1:14 PM CST
Length of Visible Light 11h 23m
Length of Day
10h 33m
Last Quarter, 38% of the Moon is Illuminated
Dec 26
Last Quarter
Jan 1
New
Jan 7
First Quarter
Jan 15
Full
Jan 23
Last Quarter

Hourly Weather History & Observations

Time (CST) Temp. Windchill Dew Point Humidity Pressure Visibility Wind Dir Wind Speed Gust Speed Precip Events Conditions
12:00 AM 37 °F - 37 °F 100% 30.23 in 0 mi South 11.2 mph - - Rain Light Drizzle
2:58 AM 36 °F - 36 °F 98% 30.28 in 3 mi South 8.9 mph - - Rain Light Drizzle
5:50 AM 35 °F - 35 °F 98% 30.29 in 0 mi SSE 8.9 mph - - Fog Light Fog
6:00 AM 35 °F - 35 °F 98% 30.29 in 0 mi SSE 8.9 mph - - Fog Light Fog
6:40 AM 41.0 °F - 37.4 °F 87% 30.36 in 1.0 mi Calm Calm - N/A   Light Drizzle
7:40 AM 41.0 °F - 37.4 °F 87% 30.36 in 1.0 mi Calm Calm - N/A   Light Drizzle
8:40 AM 41.0 °F - 37.4 °F 87% 30.38 in 0.2 mi Calm Calm - N/A Fog Fog
8:48 AM 34 °F - 34 °F 99% 30.35 in 0 mi North 6.7 mph - - Fog Heavy Fog
9:40 AM 41.0 °F - 37.4 °F 87% 30.38 in 0.2 mi Calm Calm - N/A Fog Fog
10:40 AM 41.0 °F - 37.4 °F 87% 30.39 in 0.2 mi Calm Calm - N/A Fog Fog
11:40 AM 41.0 °F - 37.4 °F 87% 30.39 in 0.2 mi Calm Calm - N/A Fog Fog
11:49 AM 34 °F - 34 °F 100% 30.39 in 0 mi North 8.9 mph - - Fog Heavy Fog
12:40 PM 41.0 °F 37.1 °F 37.4 °F 87% 30.37 in 0.2 mi North 5.8 mph - N/A Fog Fog
1:40 PM 41.0 °F - 41.0 °F 100% 30.36 in 0.2 mi Calm Calm - N/A Fog Light Drizzle
2:40 PM 39.2 °F - 39.2 °F 100% 30.32 in 0.2 mi Calm Calm - N/A Fog Light Drizzle
2:48 PM 35 °F - 35 °F 97% 30.30 in 0 mi North 6.7 mph - - Fog Heavy Fog
3:40 PM 39.2 °F - 39.2 °F 100% 30.32 in 0.2 mi Calm Calm - N/A Fog Fog
4:40 PM 39.2 °F - 39.2 °F 100% 30.32 in 1.0 mi Calm Calm - N/A Fog , Rain Light Rain
5:40 PM 39.2 °F - 39.2 °F 100% 30.32 in 1.0 mi Calm Calm - N/A Fog , Rain Light Rain
5:48 PM 35 °F - 35 °F 98% 30.32 in 1 mi North 4.5 mph - - Fog Partial Fog
6:00 PM 35 °F - 35 °F 98% 30.32 in 1 mi North 4.5 mph - - Fog Partial Fog
6:40 PM 39.2 °F - 39.2 °F 100% 30.32 in 2.0 mi Calm Calm - N/A Fog , Rain Light Rain
7:40 PM 39.2 °F - 39.2 °F 100% 30.32 in 1.0 mi Calm Calm - N/A   Overcast
8:40 PM 39.2 °F - 39.2 °F 100% 30.34 in 0.1 mi Calm Calm - N/A Fog Fog
8:48 PM 36 °F - 36 °F 98% 30.32 in 2 mi SE 6.7 mph - - Rain Light Drizzle
9:40 PM 39.2 °F - 39.2 °F 100% 30.34 in 0.1 mi Calm Calm - N/A Fog Fog
11:48 PM 34 °F - 34 °F 99% 30.34 in 1 mi NNW 6.7 mph - - Fog Partial Fog